Location: Newark
(43.0000°N, 1.6781°W)
Time: 23:56:01
(UTC+00:00)

deb Explorer IX - Pass Details

Date: 19 April 2021
Orbit: 541 x 1098 km, 38.8° (Epoch: 12 May)

Event Time Altitude Azimuth Distance (km) Brightness Sun altitude
Rises 06:16:40 0° 207° (SSW) 2,708 ? 9.6°
Reaches altitude 10° 06:19:39 10° 183° (S) 1,866 ? 10.2°
Maximum altitude 06:22:06 15° 147° (SSE) 1,619 ? 10.6°
Drops below altitude 10° 06:24:42 10° 112° (ESE) 1,995 ? 11.1°
Sets 06:28:04 0° 90° (E) 3,018 ? 11.7°
